WS7O Weather Reports


Display with metric or nautical units.
time (UTC)temp
F
wind
direction
speed
MPH
gust
MPH
rain 1hr
in
rain 24hr
in
rain mn
in
humidity
%
barometer
mb
20260507091548 60 0 0.0 1.0 0.00 0.00 0.00 38 1016.4
20260507090051 59 0 0.0 1.0 0.00 0.00 0.00 38 1016.6
20260507084552 59 0 0.0 0.0 0.00 0.00 0.00 39 1016.6
20260507083052 60 0 0.0 0.0 0.00 0.00 0.00 39 1016.8
20260507081550 59 0 0.0 0.0 0.00 0.00 0.00 39 1016.7
20260507074555 61 0 0.0 0.0 0.00 0.00 0.00 38 1016.8
20260507073055 61 0 0.0 1.0 0.00 0.00 0.00 38 1016.9
20260507071547 60 0 0.0 0.0 0.00 0.00 0.00 39 1016.9
20260507070057 60 0 0.0 0.0 0.00 0.00 0.00 39 1017.0
20260507064548 61 0 0.0 0.0 0.00 0.00 0.00 37 1017.0
20260507063050 61 0 0.0 0.0 0.00 0.00 0.00 38 1017.0
20260507061549 62 0 0.0 0.0 0.00 0.00 0.00 37 1016.9
20260507060056 62 0 0.0 0.0 0.00 0.00 0.00 36 1016.8
20260507054549 63 0 0.0 0.0 0.00 0.00 0.00 35 1016.8
20260507053053 63 0 0.0 0.0 0.00 0.00 0.00 35 1016.8
20260507051545 64 0 0.0 0.0 0.00 0.00 0.00 34 1016.8
20260507050052 65 0 0.0 0.0 0.00 0.00 0.00 34 1016.6
20260507044557 66 0 0.0 1.0 0.00 0.00 0.00 33 1016.6
20260507043056 67 0 0.0 0.0 0.00 0.00 0.00 32 1016.5
20260507041548 68 0 0.0 0.0 0.00 0.00 0.00 31 1016.3
20260507040051 69 0 0.0 0.0 0.00 0.00 0.00 31 1016.0
20260507034551 70 0 0.0 1.0 0.00 0.00 0.00 30 1015.9
20260507033048 70 0 0.0 1.0 0.00 0.00 0.00 29 1015.8
20260507031549 71 0 0.0 1.0 0.00 0.00 0.00 29 1015.5
20260507030057 72 0 0.0 1.0 0.00 0.00 0.00 28 1015.3
20260507024556 72 0 0.0 1.0 0.00 0.00 0.00 27 1015.2
20260507023050 73 0 0.0 2.0 0.00 0.00 0.00 26 1015.0
20260507021549 74 0 0.0 2.0 0.00 0.00 0.00 26 1014.9
20260507020050 75 0 0.0 2.0 0.00 0.00 0.00 25 1014.6
20260507014545 76 0 0.0 5.0 0.00 0.00 0.00 24 1014.6
20260507013057 77 0 0.0 5.0 0.00 0.00 0.00 24 1014.4
20260507011544 79 117 1.0 5.0 0.00 0.00 0.00 23 1014.3
20260507010048 80 0 0.0 6.0 0.00 0.00 0.00 22 1014.2
20260507004549 81 0 0.0 4.0 0.00 0.00 0.00 21 1014.2
20260507003047 81 0 0.0 8.0 0.00 0.00 0.00 21 1014.1
20260507001548 82 0 0.0 5.0 0.00 0.00 0.00 21 1014.1
20260507000052 82 133 1.0 4.0 0.00 0.00 0.00 21 1014.3
20260506234554 82 267 0.0 6.0 0.00 0.00 0.00 21 1014.2
20260506233049 82 0 0.0 9.0 0.00 0.00 0.00 21 1014.4
20260506231549 82 0 0.0 5.0 0.00 0.00 0.00 21 1014.5
20260506230049 82 0 0.0 4.0 0.00 0.00 0.00 21 1014.6
20260506224600 82 0 0.0 4.0 0.00 0.00 0.00 21 1014.7
20260506223048 82 14 1.0 8.0 0.00 0.00 0.00 21 1014.8
20260506221548 82 0 0.0 3.0 0.00 0.00 0.00 22 1015.2
20260506220049 81 0 0.0 5.0 0.00 0.00 0.00 23 1015.3
20260506214605 80 0 0.0 6.0 0.00 0.00 0.00 23 1015.5
20260506213051 80 311 1.0 8.0 0.00 0.00 0.00 23 1015.8
20260506211548 81 91 0.0 5.0 0.00 0.00 0.00 23 1016.0
20260506210054 80 0 0.0 7.0 0.00 0.00 0.00 24 1016.1
20260506204559 80 0 1.0 6.0 0.00 0.00 0.00 24 1016.3
20260506203052 79 0 1.0 7.0 0.00 0.00 0.00 24 1016.3
20260506201551 79 122 0.0 8.0 0.00 0.00 0.00 25 1016.5
20260506200050 78 87 0.0 5.0 0.00 0.00 0.00 26 1016.7
20260506194600 78 279 0.0 3.0 0.00 0.00 0.00 26 1016.7
20260506193052 77 195 0.0 9.0 0.00 0.00 0.00 26 1017.0
20260506191552 76 130 2.0 8.0 0.00 0.00 0.00 27 1017.0
20260506190049 76 178 1.0 6.0 0.00 0.00 0.00 27 1017.2
20260506184550 74 0 1.0 9.0 0.00 0.00 0.00 26 1017.3
20260506183100 74 0 2.0 7.0 0.00 0.00 0.00 25 1017.6
20260506181548 73 254 0.0 9.0 0.00 0.00 0.00 26 1017.7
20260506180051 73 0 1.0 9.0 0.00 0.00 0.00 27 1017.8
20260506174549 72 0 0.0 9.0 0.00 0.00 0.00 27 1017.8
20260506173051 71 298 1.0 9.0 0.00 0.00 0.00 28 1017.9
20260506171555 71 0 1.0 8.0 0.00 0.00 0.00 28 1017.7
20260506170052 71 0 0.0 5.0 0.00 0.00 0.00 28 1017.7